User: anonymous
Location: Hopkins Observatory
(42.6965°N, 73.1843°W)
Time: 23:11:42
(UTC-04:00)
Language:

UOSAT-12 - Orbit

View from above orbital plane
View from above orbital plane
View from above satellite
View from above satellite

Ground track
Ground track

The orbit data is extracted from the following two-line orbital elements,

1 25693U 99021A   14109.44676464  .00001210  00000-0  17637-3 0  4549
2 25693 064.5570 083.0637 0044691 296.2429 204.4619 14.79906073809222
Epoch (UTC): 19 April 2014 10:43:20
Eccentricity: 0.0044691
inclination: 64.5570°
perigee height: 598 km
apogee height: 661 km
right ascension of ascending node: 83.0637°
argument of perigee: 296.2429°
revolutions per day: 14.79906073
mean anomaly at epoch: 204.4619°
orbit number at epoch: 80922

The dashed part of the orbit path shows where the satellite is in the earth's shadow,  

DLR